TimeCDT,TemperatureF,Dew PointF,Humidity,Sea Level PressureIn,VisibilityMPH,Wind Direction,Wind SpeedMPH,Gust SpeedMPH,PrecipitationIn,Events,Conditions,WindDirDegrees,DateUTC
12:14 AM,33.8,28.4,81,30.16,10.0,NW,8.1,-,N/A,,Overcast,310,2012-10-06 05:14:00
12:33 AM,33.8,28.4,81,30.17,10.0,NW,9.2,-,N/A,,Overcast,310,2012-10-06 05:33:00
12:53 AM,32.0,30.2,93,30.17,7.0,NW,8.1,-,N/A,Snow,Light Snow,310,2012-10-06 05:53:00
1:14 AM,32.0,28.4,87,30.17,10.0,NW,13.8,17.3,N/A,,Mostly Cloudy,320,2012-10-06 06:14:00
1:33 AM,32.0,28.4,87,30.17,10.0,NW,11.5,-,N/A,,Mostly Cloudy,320,2012-10-06 06:33:00
1:53 AM,32.0,30.2,93,30.18,-9999.0,NW,10.4,17.3,N/A,,Mostly Cloudy,320,2012-10-06 06:53:00
2:13 AM,32.0,30.2,93,-9999,10.0,NW,12.7,-,N/A,,Overcast,320,2012-10-06 07:13:00
2:34 AM,32.0,30.2,93,30.18,10.0,NW,8.1,-,N/A,,Overcast,320,2012-10-06 07:34:00
2:53 AM,30.2,30.2,100,30.19,10.0,NW,10.4,-,N/A,,Mostly Cloudy,310,2012-10-06 07:53:00
3:13 AM,32.0,30.2,93,30.19,10.0,NW,9.2,-,N/A,,Overcast,310,2012-10-06 08:13:00
3:34 AM,30.2,30.2,100,30.19,4.0,NW,6.9,-,N/A,Snow,Light Snow,310,2012-10-06 08:34:00
3:54 AM,30.2,30.2,100,30.20,10.0,NW,8.1,-,N/A,,Overcast,310,2012-10-06 08:54:00
4:34 AM,30.2,30.2,100,30.21,10.0,NW,10.4,-,N/A,,Overcast,310,2012-10-06 09:34:00
4:54 AM,30.2,30.2,100,30.21,10.0,NW,9.2,-,N/A,,Overcast,310,2012-10-06 09:54:00
5:13 AM,30.2,30.2,100,30.21,5.0,NW,8.1,-,N/A,,Overcast,320,2012-10-06 10:13:00
5:34 AM,30.2,30.2,100,30.21,10.0,NNW,6.9,-,N/A,,Overcast,330,2012-10-06 10:34:00
5:53 AM,30.2,28.4,93,30.22,10.0,Calm,Calm,-,N/A,,Mostly Cloudy,0,2012-10-06 10:53:00
6:14 AM,30.2,28.4,93,30.22,10.0,NNW,4.6,-,N/A,,Mostly Cloudy,330,2012-10-06 11:14:00
6:34 AM,30.2,28.4,93,30.23,10.0,NNW,9.2,-,N/A,,Overcast,330,2012-10-06 11:34:00
6:53 AM,30.2,28.4,93,30.24,10.0,Calm,Calm,-,N/A,,Overcast,0,2012-10-06 11:53:00
7:14 AM,28.4,26.6,93,30.24,10.0,Calm,Calm,-,N/A,,Scattered Clouds,0,2012-10-06 12:14:00
7:34 AM,28.4,26.6,93,30.25,10.0,Calm,Calm,-,N/A,,Clear,0,2012-10-06 12:34:00
7:53 AM,28.4,26.6,93,30.26,10.0,Calm,Calm,-,N/A,,Mostly Cloudy,0,2012-10-06 12:53:00
8:14 AM,28.4,28.4,100,30.26,10.0,Calm,Calm,-,N/A,,Overcast,0,2012-10-06 13:14:00
8:34 AM,30.2,28.4,93,30.27,10.0,Calm,Calm,-,N/A,,Overcast,0,2012-10-06 13:34:00
8:53 AM,30.2,28.4,93,30.27,10.0,NW,5.8,-,N/A,,Overcast,320,2012-10-06 13:53:00
9:13 AM,30.2,28.4,93,30.28,10.0,NW,8.1,-,N/A,,Overcast,320,2012-10-06 14:13:00
9:34 AM,30.2,28.4,93,30.29,10.0,NW,9.2,-,N/A,,Overcast,310,2012-10-06 14:34:00
9:53 AM,32.0,28.4,87,30.29,10.0,NW,12.7,-,N/A,,Overcast,310,2012-10-06 14:53:00
10:13 AM,33.8,28.4,81,30.29,10.0,NW,12.7,-,N/A,,Mostly Cloudy,320,2012-10-06 15:13:00
10:33 AM,35.6,28.4,75,30.29,10.0,NW,11.5,-,N/A,,Mostly Cloudy,320,2012-10-06 15:33:00
10:53 AM,35.6,26.6,70,30.30,10.0,NNW,9.2,17.3,N/A,,Mostly Cloudy,340,2012-10-06 15:53:00
11:14 AM,35.6,26.6,70,30.30,10.0,NW,12.7,23.0,N/A,,Mostly Cloudy,320,2012-10-06 16:14:00
11:33 AM,37.4,24.8,60,30.30,10.0,NNW,5.8,18.4,N/A,,Mostly Cloudy,330,2012-10-06 16:33:00
11:53 AM,37.4,24.8,60,30.30,10.0,NNW,8.1,18.4,N/A,,Mostly Cloudy,340,2012-10-06 16:53:00
12:14 PM,37.4,24.8,60,30.30,10.0,North,9.2,19.6,N/A,,Mostly Cloudy,360,2012-10-06 17:14:00
12:33 PM,39.2,23.0,52,30.29,10.0,Calm,Calm,-,N/A,,Mostly Cloudy,0,2012-10-06 17:33:00
12:53 PM,39.2,23.0,52,30.29,10.0,Calm,Calm,-,N/A,,Mostly Cloudy,0,2012-10-06 17:53:00
1:13 PM,39.2,21.2,49,30.29,10.0,Calm,Calm,-,N/A,,Overcast,0,2012-10-06 18:13:00
1:33 PM,42.8,19.4,39,30.28,10.0,North,6.9,-,N/A,,Overcast,350,2012-10-06 18:33:00
1:54 PM,42.8,21.2,42,30.27,10.0,Calm,Calm,-,N/A,,Mostly Cloudy,0,2012-10-06 18:54:00
2:13 PM,42.8,21.2,42,30.27,10.0,Calm,Calm,-,N/A,,Overcast,0,2012-10-06 19:13:00
2:33 PM,42.8,19.4,39,30.26,10.0,Calm,Calm,-,N/A,,Overcast,0,2012-10-06 19:33:00
2:54 PM,42.8,19.4,39,30.25,10.0,NNW,10.4,-,N/A,,Overcast,330,2012-10-06 19:54:00
3:13 PM,44.6,17.6,34,30.24,10.0,North,9.2,-,N/A,,Mostly Cloudy,360,2012-10-06 20:13:00
3:33 PM,42.8,19.4,39,30.24,10.0,NNW,8.1,-,N/A,,Overcast,330,2012-10-06 20:33:00
3:54 PM,42.8,17.6,36,30.24,10.0,NW,10.4,-,N/A,,Mostly Cloudy,320,2012-10-06 20:54:00
4:13 PM,41.0,17.6,39,30.24,10.0,Calm,Calm,-,N/A,,Scattered Clouds,0,2012-10-06 21:13:00
4:33 PM,42.8,19.4,39,30.23,10.0,Calm,Calm,-,N/A,,Scattered Clouds,0,2012-10-06 21:33:00
4:54 PM,41.0,19.4,42,30.23,10.0,NW,5.8,9.2,N/A,,Scattered Clouds,320,2012-10-06 21:54:00
5:14 PM,44.6,19.4,37,30.22,10.0,WNW,10.4,-,N/A,,Mostly Cloudy,300,2012-10-06 22:14:00
5:33 PM,39.2,19.4,45,30.22,10.0,NNW,9.2,-,N/A,,Scattered Clouds,330,2012-10-06 22:33:00
5:54 PM,42.8,21.2,42,30.22,10.0,WNW,11.5,-,N/A,,Mostly Cloudy,300,2012-10-06 22:54:00
6:14 PM,41.0,21.2,45,30.22,10.0,NW,10.4,-,N/A,,Mostly Cloudy,310,2012-10-06 23:14:00
6:33 PM,39.2,21.2,49,30.22,10.0,NW,8.1,-,N/A,,Scattered Clouds,310,2012-10-06 23:33:00
6:54 PM,37.4,21.2,52,30.22,10.0,NW,8.1,-,N/A,,Scattered Clouds,320,2012-10-06 23:54:00
7:13 PM,35.6,21.2,56,30.23,10.0,WNW,4.6,-,N/A,,Clear,300,2012-10-07 00:13:00
7:33 PM,33.8,21.2,60,30.23,10.0,WNW,4.6,-,N/A,,Clear,290,2012-10-07 00:33:00
7:54 PM,32.0,21.2,64,30.23,10.0,WNW,3.5,-,N/A,,Clear,290,2012-10-07 00:54:00
8:13 PM,28.4,21.2,74,30.23,10.0,West,3.5,-,N/A,,Clear,260,2012-10-07 01:13:00
8:33 PM,28.4,21.2,74,30.23,10.0,West,3.5,-,N/A,,Clear,260,2012-10-07 01:33:00
8:54 PM,28.4,21.2,74,30.23,10.0,WSW,4.6,-,N/A,,Clear,250,2012-10-07 01:54:00
9:13 PM,28.4,21.2,74,30.22,10.0,West,3.5,-,N/A,,Clear,260,2012-10-07 02:13:00
9:33 PM,26.6,21.2,80,30.22,10.0,Calm,Calm,-,N/A,,Clear,0,2012-10-07 02:33:00
9:54 PM,28.4,21.2,74,30.22,10.0,Calm,Calm,-,N/A,,Clear,0,2012-10-07 02:54:00
10:13 PM,28.4,21.2,74,30.21,10.0,Calm,Calm,-,N/A,,Clear,0,2012-10-07 03:13:00
10:33 PM,24.8,21.2,86,30.21,10.0,Calm,Calm,-,N/A,,Clear,0,2012-10-07 03:33:00
11:13 PM,24.8,19.4,80,30.20,10.0,Calm,Calm,-,N/A,,Clear,0,2012-10-07 04:13:00
11:33 PM,24.8,21.2,86,30.20,10.0,Calm,Calm,-,N/A,,Clear,0,2012-10-07 04:33:00
11:54 PM,26.6,21.2,80,30.19,10.0,Calm,Calm,-,N/A,,Clear,0,2012-10-07 04:54:00